This is the latest recevied weather packets stored in our database for station/object AC2VK-1. If no packets are shown the sender has not sent any weather packets the latest 10 day(s).
| Time | Temp. | Humidity | Pressure | Rain* | Wind** | Luminosity | Snow |
|---|---|---|---|---|---|---|---|
| 1777329579 | 26.67° C | 44% | 1017.1 hPa | 0 mm | - | - | - |
| 1777328979 | 26.67° C | 44% | 1017.1 hPa | 0 mm | - | - | - |
| 1777328379 | 26.67° C | 44% | 1017.1 hPa | 0 mm | - | - | - |
| 1777327779 | 26.67° C | 47% | 1017.4 hPa | 0 mm | - | - | - |
| 1777327179 | 26.67° C | 47% | 1017.5 hPa | 0 mm | - | - | - |
| 1777326579 | 27.22° C | 46% | 1017.4 hPa | 0 mm | - | - | - |
| 1777325979 | 27.22° C | 46% | 1017.5 hPa | 0 mm | - | - | - |
| 1777325379 | 27.22° C | 46% | 1017.3 hPa | 0 mm | - | - | - |
| 1777324779 | 27.22° C | 46% | 1017.4 hPa | 0 mm | - | - | - |
| 1777324179 | 27.22° C | 44% | 1017.4 hPa | 0 mm | - | - | - |
| 1777323579 | 27.22° C | 43% | 1017.3 hPa | 0 mm | - | - | - |
| 1777322979 | 27.22° C | 44% | 1017.5 hPa | 0 mm | - | - | - |
| 1777322379 | 27.22° C | 44% | 1017.4 hPa | 0 mm | - | - | - |
| 1777321779 | 27.22° C | 45% | 1017.7 hPa | 0 mm | - | - | - |
| 1777321179 | 27.22° C | 45% | 1017.8 hPa | 0 mm | - | - | - |
| 1777320579 | 27.22° C | 46% | 1018 hPa | 0 mm | - | - | - |
| 1777319979 | 27.22° C | 49% | 1018 hPa | 0 mm | - | - | - |
| 1777319380 | 26.67° C | 50% | 1018.1 hPa | 0 mm | - | - | - |
| 1777318780 | 26.11° C | 51% | 1018.2 hPa | 0 mm | - | - | - |
| 1777318179 | 26.11° C | 54% | 1018.2 hPa | 0 mm | - | - | - |
| 1777317580 | 26.11° C | 53% | 1018.2 hPa | 0 mm | - | - | - |
| 1777316980 | 25.56° C | 54% | 1018.2 hPa | 0 mm | - | - | - |
| 1777316380 | 25.56° C | 56% | 1018.2 hPa | 0 mm | - | - | - |
| 1777315780 | 25.56° C | 56% | 1018.2 hPa | 0 mm | - | - | - |
| 1777315180 | 26.11° C | 55% | 1018.2 hPa | 0 mm | - | - | - |
* Rain latest hour (hover to see other rain measurements)
** Current wind speed in m/s (hover to see current wind gust speed)